Flag for Russia Weather past 2 weeks in Murmansk, Russia

Now
32 °F

Broken clouds.


Feels Like: 26 °F
Forecast: 30 / 38 °F
Wind: 6 mph from Northwest

Location: Murmansk Airport

Current Time: Apr 25, 2015 at 10:59:56 PM

Latest Report: Apr 25, 2015 at 10:00 PM


Visibility: N/A

Pressure: 29.77 "Hg

Humidity: 87%

Dew point: 28 °F

Location of MurmanskLocation

Historic Weather in Murmansk — Graph

°F

Murmansk temperature yesterday

Maximum temperature yesterday: 32 °F (at 2:30 PM)
Minimum temperature yesterday: 19 °F (at 11:30 PM)
Average temperature yesterday: 27 °F

Past Weeks' High & Low Weather Summary

 TemperatureHumidityPressure
High46 °F (Apr 13, 3:00 PM)100% (Apr 15, 3:00 AM)29.98 "Hg (Apr 15, 3:00 AM)
Low19 °F (Apr 24, 11:30 PM)31% (Apr 12, 2:00 PM)29.21 "Hg (Apr 23, 1:30 AM)
Average33 °F73%29.64 "Hg
* Reported Apr 10 10:00 PM — Apr 25 10:00 PM, Murmansk, Weather by CustomWeather, © 2015

Note: Actual official high and low records may vary slightly from our data, if they occured in-between our weather recording intervals... More about our weather records

Advertising

Murmansk weather history for previous 24 hours

 ConditionsComfort  
Time TempWeatherWind HumidityBarometerVisibility
10:00 PM
Sat, Apr 25
32 °FBroken clouds.6 mph87%29.77 "HgN/A
9:30 PM32 °FSnow flurries. Partly sunny.6 mph93%29.77 "Hg5 mi
9:00 PM32 °FSnow flurries. Partly sunny.6 mph87%29.77 "Hg3 mi
8:30 PM32 °FSnow flurries. Partly sunny.6 mph93%29.77 "Hg2 mi
8:00 PM32 °FSnow flurries. Partly sunny.6 mph87%29.77 "Hg6 mi
7:30 PM32 °FSnow flurries. Partly sunny.6 mph80%29.77 "Hg6 mi
7:00 PM34 °FSnow flurries. Partly sunny.8 mph75%29.77 "HgN/A
6:30 PM34 °FSnow flurries. Partly sunny.8 mph75%29.80 "Hg6 mi
6:00 PM34 °FSnow flurries. Partly sunny.10 mph70%29.80 "HgN/A
5:30 PM34 °FSnow flurries. Partly sunny.13 mph70%29.80 "HgN/A
5:00 PM34 °FSnow flurries. Partly sunny.10 mph75%29.80 "HgN/A
4:30 PM34 °FSnow flurries. Partly sunny.13 mph70%29.80 "HgN/A
4:00 PM34 °FSnow flurries. Partly sunny.10 mph75%29.80 "Hg4 mi
3:30 PM36 °FSnow flurries. Partly sunny.10 mph60%29.80 "HgN/A
3:00 PM34 °FSnow flurries. Partly sunny.10 mph65%29.80 "HgN/A
2:30 PM34 °FSnow flurries. Partly sunny.10 mph65%29.77 "HgN/A
2:00 PM34 °FPartly sunny.10 mph65%29.77 "HgN/A
1:30 PM34 °FPartly sunny.10 mph65%29.77 "HgN/A
1:00 PM34 °FPartly sunny.10 mph65%29.77 "HgN/A
12:30 PM34 °FPartly sunny.10 mph70%29.77 "HgN/A
12:00 PM34 °FPartly sunny.13 mph65%29.77 "HgN/A
11:30 AM34 °FBroken clouds.10 mph65%29.77 "HgN/A
11:00 AM34 °FPartly sunny.8 mph65%29.74 "HgN/A
10:30 AM34 °FPartly sunny.8 mph70%29.74 "HgN/A
10:00 AM32 °FPartly sunny.8 mph75%29.74 "HgN/A
9:30 AM32 °FSnow flurries. Partly sunny.8 mph75%29.74 "HgN/A
9:00 AM30 °FPartly sunny.6 mph80%29.74 "HgN/A
8:30 AM30 °FPartly sunny.6 mph80%29.74 "HgN/A
8:00 AM30 °FSnow flurries. Partly sunny.6 mph80%29.71 "Hg6 mi
7:30 AM28 °FPartly sunny.6 mph80%29.71 "HgN/A
7:00 AM28 °FPartly sunny.3 mph86%29.71 "HgN/A
6:30 AM27 °FSnow flurries. Partly sunny.6 mph93%29.71 "Hg6 mi
6:00 AM27 °FSnow flurries. Partly sunny.6 mph86%29.71 "Hg6 mi
5:30 AM27 °FBroken clouds.6 mph86%29.71 "HgN/A
5:00 AM27 °FSnow flurries. Passing clouds.3 mph86%29.71 "Hg6 mi
4:00 AM27 °FSnow flurries. Passing clouds.1 mph86%29.71 "HgN/A
3:30 AM27 °FSnow flurries. Passing clouds.1 mph86%29.71 "Hg4 mi
3:00 AM25 °FSnow flurries. Passing clouds.3 mph93%29.68 "Hg6 mi
2:30 AM25 °FSnow flurries. Passing clouds.No wind93%29.68 "Hg5 mi
2:00 AM23 °FSnow flurries. Passing clouds.No wind93%29.68 "HgN/A
1:30 AM23 °FSnow flurries. Passing clouds.No wind86%29.68 "Hg2 mi
1:00 AM21 °FPassing clouds.No wind86%29.68 "HgN/A
12:30 AM19 °FPassing clouds.1 mph93%29.68 "HgN/A
12:00 AM19 °FPartly cloudy.No wind93%29.68 "HgN/A
11:30 PM
Fri, Apr 24
19 °FPartly cloudy.3 mph86%29.68 "HgN/A
11:00 PM21 °FPartly cloudy.No wind86%29.68 "HgN/A
10:30 PM25 °FPartly cloudy.No wind86%29.68 "HgN/A
10:00 PM23 °FSnow flurries. Broken clouds.No wind86%29.68 "HgN/A
Weather by CustomWeather, © 2015

See weather overviewHow to use our weather pages